(°C)
10°
10°
10°
10°
11°
12°
14°
(°C)
ΝΔ
ΝΔ
ΝΝΔ
ΝΝΔ
ΝΔ
ΝΔ
ΝΔ
(χλμ / ω)
12-31
10-28
10-29
11-32
12-33
13-38
14-38
(χιλιοστά)
0
0
0
0
0
0
0
(%)
0
0
0
0
0
0
0

Ανύψωση ήλιου

/ -6.5°
sun-icon
UV 5
03:08
20:11
Φθίνων αμφίκυρτος (φάση σελήνης) (349°)
02:39
19:16

METAR για 55.61°Β 49.28°Α (UWKD)

Χρόνος Συνθήκες Θερμοκρασία/
Σημείο δρόσου
Άνεμος Ορατότητα Καιρός Νέφη Πίεση Αλλαγή Ανεπεξέργαστο
MVFR 10°C / 7°C 250º 14kt >10km - Broken Clouds 2700ft 1006 No Significant change. Runway 29: Wet or puddles, with <1mm, friction coefficient 0.50. UWKD 282300Z 25007MPS 9999 BKN027 10/07 Q1006 R29/2/0050 NOSIG RMK QFE743/0991
VFR 11°C / 7°C 260º 14kt >10km - Clouds and Visibility OK 1005 No Significant change. Runway 29: Wet or puddles, with <1mm, friction coefficient 0.50. UWKD 282230Z 26007MPS CAVOK 11/07 Q1005 R29/2/0050 NOSIG RMK QFE743/0991
VFR 11°C / 8°C 240º variable 190º to 260º 8kt >10km - Clouds and Visibility OK 1005 No Significant change. Runway 29: Wet or puddles, with <1mm, friction coefficient 0.50. UWKD 282200Z 24004MPS 190V260 CAVOK 11/08 Q1005 R29/2/0050 NOSIG RMK QFE743/0991
VFR 10°C / 8°C 230º variable 190º to 260º 8kt >10km - Clouds and Visibility OK 1005 No Significant change. Runway 29: Wet or puddles, with <1mm, friction coefficient 0.50. UWKD 282130Z 23004MPS 190V260 CAVOK 10/08 Q1005 R29/2/0050 NOSIG RMK QFE743/0990
VFR 11°C / 7°C 240º 8kt >10km - Clouds and Visibility OK 1005 No Significant change. Runway 29: Wet or puddles, with <1mm, friction coefficient 0.50. UWKD 282100Z 24004MPS CAVOK 11/07 Q1005 R29/2/0050 NOSIG RMK QFE742/0990
VFR 11°C / 7°C 250º 8kt >10km - Clouds and Visibility OK 1005 No Significant change. Runway 29: Wet or puddles, with <1mm, friction coefficient 0.50. UWKD 282030Z 25004MPS CAVOK 11/07 Q1005 R29/2/0050 NOSIG RMK QFE742/0990
VFR 10°C / 7°C 230º 4kt >10km - Clouds and Visibility OK 1004 No Significant change. Runway 29: Wet or puddles, with <1mm, friction coefficient 0.50. UWKD 282000Z 23002MPS CAVOK 10/07 Q1004 R29/2/0050 NOSIG RMK QFE742/0989
VFR 11°C / 7°C 250º 10kt >10km - Clouds and Visibility OK 1004 No Significant change. Runway 29: Wet or puddles, with <1mm, friction coefficient 0.50. UWKD 281930Z 25005MPS CAVOK 11/07 Q1004 R29/2/0050 NOSIG RMK QFE742/0989
VFR 11°C / 7°C 250º 10kt >10km - Clouds and Visibility OK 1004 No Significant change. Runway 29: Wet or puddles, with <1mm, friction coefficient 0.50. UWKD 281900Z 25005MPS CAVOK 11/07 Q1004 R29/2/0050 NOSIG RMK QFE742/0989
VFR 11°C / 8°C 220º variable 200º to 260º 8kt >10km - Clouds and Visibility OK 1003 No Significant change. Runway 29: Wet or puddles, with <1mm, friction coefficient 0.50. UWKD 281830Z 22004MPS 200V260 CAVOK 11/08 Q1003 R29/2/0050 NOSIG RMK QFE741/0989
VFR 11°C / 9°C 230º 6kt >10km - Clouds and Visibility OK 1003 No Significant change. Runway 29: Wet or puddles, with <1mm, friction coefficient 0.50. UWKD 281800Z 23003MPS CAVOK 11/09 Q1003 R29/2/0050 NOSIG RMK QFE741/0988
VFR 11°C / 10°C 220º 6kt >10km - Clouds and Visibility OK 1003 No Significant change. Runway 29: Wet or puddles, with <1mm, friction coefficient 0.50. UWKD 281730Z 22003MPS CAVOK 11/10 Q1003 R29/2/0050 NOSIG RMK QFE741/0988
VFR 12°C / 10°C 200º variable 180º to 240º 4kt 9000m Light Showers Rain 3.00mm precipitation Vertical Visibility of 0ft. 1003 No Significant change. Runway 29: Wet or puddles, with <1mm, friction coefficient 0.60. UWKD 281700Z 20002MPS 180V240 9000 -SHRA BKN048CB 12/10 Q1003 R29/2/0060 NOSIG RMK QFE741/0988
MVFR 12°C / 9°C 230º 4kt >10km - Broken Clouds 2400ft 1003 No Significant change. Runway 29: Wet or puddles, with <1mm, friction coefficient 0.60. UWKD 281630Z 23002MPS 9999 BKN024 12/09 Q1003 R29/2/0060 NOSIG RMK QFE741/0988
MVFR 13°C / 10°C 230º variable 200º to 260º 4kt >10km - Broken Clouds 2100ft 1002 No Significant change. Runway 29: Wet or puddles, with <1mm, friction coefficient 0.60. UWKD 281600Z 23002MPS 200V260 9999 BKN021 13/10 Q1002 R29/2/0060 NOSIG RMK QFE741/0988
MVFR 13°C / 10°C 250º variable 200º to 270º 8kt >10km - Broken Clouds 1700ft 1002 No Significant change. Runway 29: Wet or puddles, with <1mm, friction coefficient 0.50. UWKD 281530Z 25004MPS 200V270 9999 BKN017 13/10 Q1002 R29/2/0050 NOSIG RMK QFE741/0988
MVFR 13°C / 10°C 240º variable 210º to 270º 10kt >10km - Broken Clouds 1600ft 1002 No Significant change. Runway 29: Wet or puddles, with <1mm, friction coefficient 0.50. UWKD 281500Z 24005MPS 210V270 9999 BKN016 13/10 Q1002 R29/2/0050 NOSIG RMK QFE740/0987
MVFR 13°C / 10°C 240º variable 190º to 260º 8kt >10km - Broken Clouds 1400ft 1002 No Significant change. Runway 29: Wet or puddles, with <1mm, friction coefficient 0.50. UWKD 281430Z 24004MPS 190V260 9999 BKN014 13/10 Q1002 R29/2/0050 NOSIG RMK QFE740/0987
MVFR 13°C / 11°C 240º 10kt >10km - Broken Clouds 1400ft 1001 No Significant change. Runway 11: Wet or puddles, with <1mm, friction coefficient 0.50. UWKD 281400Z 24005MPS 9999 BKN014CB 13/11 Q1001 R11/2/0050 NOSIG RMK QFE741/0988
MVFR 12°C / 11°C 210º variable 180º to 240º 10kt >10km - Broken Clouds 1500ft 1001 No Significant change. Runway 11: Wet or puddles, with <1mm, friction coefficient 0.50. UWKD 281330Z 21005MPS 180V240 9999 BKN015CB 12/11 Q1001 R11/2/0050 NOSIG RMK QFE741/0988
IFR 12°C / 11°C 200º 8kt >10km - Broken Clouds 700ft 1001 No Significant change. Runway 11: Wet or puddles, with <1mm, friction coefficient 0.50. UWKD 281300Z 20004MPS 9999 BKN007CB 12/11 Q1001 R11/2/0050 NOSIG RMK QFE741/0988
IFR 11°C / 10°C 180º 12kt 9000m Light Showers Rain 3.00mm precipitation Vertical Visibility of 0ft. 1001 No Significant change. Runway 11: Wet or puddles, with <1mm, friction coefficient 0.50. UWKD 281230Z 18006MPS 9000 -SHRA BKN007CB 11/10 Q1001 R11/2/0050 NOSIG RMK QFE741/0988
IFR 11°C / 10°C 140º 12kt 4100m Light Showers Rain 3.00mm precipitation Vertical Visibility of 0ft. 1002 No Significant change. Runway 11: Wet or puddles, with <1mm, friction coefficient 0.50. UWKD 281200Z 14006MPS 4100 -SHRA BKN010CB 11/10 Q1002 R11/2/0050 NOSIG RMK QFE741/0989
IFR 11°C / 9°C 140º 10kt 5000m Light Showers Rain 3.00mm precipitation Vertical Visibility of 0ft. 1002 No Significant change. Runway 11: Wet or puddles, with <1mm, friction coefficient 0.50. UWKD 281130Z 14005MPS 5000 -SHRA BKN006CB 11/09 Q1002 R11/2/0050 NOSIG RMK QFE742/0989

MVFR

10°C / 7°C

[Περισσότερο]
Άνεμος 250º 14kt
Ορατότητα >10km
Καιρός -
Νέφη Broken Clouds 2700ft
Πίεση 1006
Αλλαγή No Significant change. Runway 29: Wet or puddles, with <1mm, friction coefficient 0.50.
Ανεπεξέργαστο UWKD 282300Z 25007MPS 9999 BKN027 10/07 Q1006 R29/2/0050 NOSIG RMK QFE743/0991

VFR

11°C / 7°C

[Περισσότερο]
Άνεμος 260º 14kt
Ορατότητα >10km
Καιρός -
Νέφη Clouds and Visibility OK
Πίεση 1005
Αλλαγή No Significant change. Runway 29: Wet or puddles, with <1mm, friction coefficient 0.50.
Ανεπεξέργαστο UWKD 282230Z 26007MPS CAVOK 11/07 Q1005 R29/2/0050 NOSIG RMK QFE743/0991

VFR

11°C / 8°C

[Περισσότερο]
Άνεμος 240º variable 190º to 260º 8kt
Ορατότητα >10km
Καιρός -
Νέφη Clouds and Visibility OK
Πίεση 1005
Αλλαγή No Significant change. Runway 29: Wet or puddles, with <1mm, friction coefficient 0.50.
Ανεπεξέργαστο UWKD 282200Z 24004MPS 190V260 CAVOK 11/08 Q1005 R29/2/0050 NOSIG RMK QFE743/0991

VFR

10°C / 8°C

[Περισσότερο]
Άνεμος 230º variable 190º to 260º 8kt
Ορατότητα >10km
Καιρός -
Νέφη Clouds and Visibility OK
Πίεση 1005
Αλλαγή No Significant change. Runway 29: Wet or puddles, with <1mm, friction coefficient 0.50.
Ανεπεξέργαστο UWKD 282130Z 23004MPS 190V260 CAVOK 10/08 Q1005 R29/2/0050 NOSIG RMK QFE743/0990

VFR

11°C / 7°C

[Περισσότερο]
Άνεμος 240º 8kt
Ορατότητα >10km
Καιρός -
Νέφη Clouds and Visibility OK
Πίεση 1005
Αλλαγή No Significant change. Runway 29: Wet or puddles, with <1mm, friction coefficient 0.50.
Ανεπεξέργαστο UWKD 282100Z 24004MPS CAVOK 11/07 Q1005 R29/2/0050 NOSIG RMK QFE742/0990

VFR

11°C / 7°C

[Περισσότερο]
Άνεμος 250º 8kt
Ορατότητα >10km
Καιρός -
Νέφη Clouds and Visibility OK
Πίεση 1005
Αλλαγή No Significant change. Runway 29: Wet or puddles, with <1mm, friction coefficient 0.50.
Ανεπεξέργαστο UWKD 282030Z 25004MPS CAVOK 11/07 Q1005 R29/2/0050 NOSIG RMK QFE742/0990

VFR

10°C / 7°C

[Περισσότερο]
Άνεμος 230º 4kt
Ορατότητα >10km
Καιρός -
Νέφη Clouds and Visibility OK
Πίεση 1004
Αλλαγή No Significant change. Runway 29: Wet or puddles, with <1mm, friction coefficient 0.50.
Ανεπεξέργαστο UWKD 282000Z 23002MPS CAVOK 10/07 Q1004 R29/2/0050 NOSIG RMK QFE742/0989

VFR

11°C / 7°C

[Περισσότερο]
Άνεμος 250º 10kt
Ορατότητα >10km
Καιρός -
Νέφη Clouds and Visibility OK
Πίεση 1004
Αλλαγή No Significant change. Runway 29: Wet or puddles, with <1mm, friction coefficient 0.50.
Ανεπεξέργαστο UWKD 281930Z 25005MPS CAVOK 11/07 Q1004 R29/2/0050 NOSIG RMK QFE742/0989

VFR

11°C / 7°C

[Περισσότερο]
Άνεμος 250º 10kt
Ορατότητα >10km
Καιρός -
Νέφη Clouds and Visibility OK
Πίεση 1004
Αλλαγή No Significant change. Runway 29: Wet or puddles, with <1mm, friction coefficient 0.50.
Ανεπεξέργαστο UWKD 281900Z 25005MPS CAVOK 11/07 Q1004 R29/2/0050 NOSIG RMK QFE742/0989

VFR

11°C / 8°C

[Περισσότερο]
Άνεμος 220º variable 200º to 260º 8kt
Ορατότητα >10km
Καιρός -
Νέφη Clouds and Visibility OK
Πίεση 1003
Αλλαγή No Significant change. Runway 29: Wet or puddles, with <1mm, friction coefficient 0.50.
Ανεπεξέργαστο UWKD 281830Z 22004MPS 200V260 CAVOK 11/08 Q1003 R29/2/0050 NOSIG RMK QFE741/0989

VFR

11°C / 9°C

[Περισσότερο]
Άνεμος 230º 6kt
Ορατότητα >10km
Καιρός -
Νέφη Clouds and Visibility OK
Πίεση 1003
Αλλαγή No Significant change. Runway 29: Wet or puddles, with <1mm, friction coefficient 0.50.
Ανεπεξέργαστο UWKD 281800Z 23003MPS CAVOK 11/09 Q1003 R29/2/0050 NOSIG RMK QFE741/0988

VFR

11°C / 10°C

[Περισσότερο]
Άνεμος 220º 6kt
Ορατότητα >10km
Καιρός -
Νέφη Clouds and Visibility OK
Πίεση 1003
Αλλαγή No Significant change. Runway 29: Wet or puddles, with <1mm, friction coefficient 0.50.
Ανεπεξέργαστο UWKD 281730Z 22003MPS CAVOK 11/10 Q1003 R29/2/0050 NOSIG RMK QFE741/0988

VFR

12°C / 10°C

[Περισσότερο]
Άνεμος 200º variable 180º to 240º 4kt
Ορατότητα 9000m
Καιρός Light Showers Rain 3.00mm precipitation
Νέφη Vertical Visibility of 0ft.
Πίεση 1003
Αλλαγή No Significant change. Runway 29: Wet or puddles, with <1mm, friction coefficient 0.60.
Ανεπεξέργαστο UWKD 281700Z 20002MPS 180V240 9000 -SHRA BKN048CB 12/10 Q1003 R29/2/0060 NOSIG RMK QFE741/0988

MVFR

12°C / 9°C

[Περισσότερο]
Άνεμος 230º 4kt
Ορατότητα >10km
Καιρός -
Νέφη Broken Clouds 2400ft
Πίεση 1003
Αλλαγή No Significant change. Runway 29: Wet or puddles, with <1mm, friction coefficient 0.60.
Ανεπεξέργαστο UWKD 281630Z 23002MPS 9999 BKN024 12/09 Q1003 R29/2/0060 NOSIG RMK QFE741/0988

MVFR

13°C / 10°C

[Περισσότερο]
Άνεμος 230º variable 200º to 260º 4kt
Ορατότητα >10km
Καιρός -
Νέφη Broken Clouds 2100ft
Πίεση 1002
Αλλαγή No Significant change. Runway 29: Wet or puddles, with <1mm, friction coefficient 0.60.
Ανεπεξέργαστο UWKD 281600Z 23002MPS 200V260 9999 BKN021 13/10 Q1002 R29/2/0060 NOSIG RMK QFE741/0988

MVFR

13°C / 10°C

[Περισσότερο]
Άνεμος 250º variable 200º to 270º 8kt
Ορατότητα >10km
Καιρός -
Νέφη Broken Clouds 1700ft
Πίεση 1002
Αλλαγή No Significant change. Runway 29: Wet or puddles, with <1mm, friction coefficient 0.50.
Ανεπεξέργαστο UWKD 281530Z 25004MPS 200V270 9999 BKN017 13/10 Q1002 R29/2/0050 NOSIG RMK QFE741/0988

MVFR

13°C / 10°C

[Περισσότερο]
Άνεμος 240º variable 210º to 270º 10kt
Ορατότητα >10km
Καιρός -
Νέφη Broken Clouds 1600ft
Πίεση 1002
Αλλαγή No Significant change. Runway 29: Wet or puddles, with <1mm, friction coefficient 0.50.
Ανεπεξέργαστο UWKD 281500Z 24005MPS 210V270 9999 BKN016 13/10 Q1002 R29/2/0050 NOSIG RMK QFE740/0987

MVFR

13°C / 10°C

[Περισσότερο]
Άνεμος 240º variable 190º to 260º 8kt
Ορατότητα >10km
Καιρός -
Νέφη Broken Clouds 1400ft
Πίεση 1002
Αλλαγή No Significant change. Runway 29: Wet or puddles, with <1mm, friction coefficient 0.50.
Ανεπεξέργαστο UWKD 281430Z 24004MPS 190V260 9999 BKN014 13/10 Q1002 R29/2/0050 NOSIG RMK QFE740/0987

MVFR

13°C / 11°C

[Περισσότερο]
Άνεμος 240º 10kt
Ορατότητα >10km
Καιρός -
Νέφη Broken Clouds 1400ft
Πίεση 1001
Αλλαγή No Significant change. Runway 11: Wet or puddles, with <1mm, friction coefficient 0.50.
Ανεπεξέργαστο UWKD 281400Z 24005MPS 9999 BKN014CB 13/11 Q1001 R11/2/0050 NOSIG RMK QFE741/0988

MVFR

12°C / 11°C

[Περισσότερο]
Άνεμος 210º variable 180º to 240º 10kt
Ορατότητα >10km
Καιρός -
Νέφη Broken Clouds 1500ft
Πίεση 1001
Αλλαγή No Significant change. Runway 11: Wet or puddles, with <1mm, friction coefficient 0.50.
Ανεπεξέργαστο UWKD 281330Z 21005MPS 180V240 9999 BKN015CB 12/11 Q1001 R11/2/0050 NOSIG RMK QFE741/0988

IFR

12°C / 11°C

[Περισσότερο]
Άνεμος 200º 8kt
Ορατότητα >10km
Καιρός -
Νέφη Broken Clouds 700ft
Πίεση 1001
Αλλαγή No Significant change. Runway 11: Wet or puddles, with <1mm, friction coefficient 0.50.
Ανεπεξέργαστο UWKD 281300Z 20004MPS 9999 BKN007CB 12/11 Q1001 R11/2/0050 NOSIG RMK QFE741/0988

IFR

11°C / 10°C

[Περισσότερο]
Άνεμος 180º 12kt
Ορατότητα 9000m
Καιρός Light Showers Rain 3.00mm precipitation
Νέφη Vertical Visibility of 0ft.
Πίεση 1001
Αλλαγή No Significant change. Runway 11: Wet or puddles, with <1mm, friction coefficient 0.50.
Ανεπεξέργαστο UWKD 281230Z 18006MPS 9000 -SHRA BKN007CB 11/10 Q1001 R11/2/0050 NOSIG RMK QFE741/0988

IFR

11°C / 10°C

[Περισσότερο]
Άνεμος 140º 12kt
Ορατότητα 4100m
Καιρός Light Showers Rain 3.00mm precipitation
Νέφη Vertical Visibility of 0ft.
Πίεση 1002
Αλλαγή No Significant change. Runway 11: Wet or puddles, with <1mm, friction coefficient 0.50.
Ανεπεξέργαστο UWKD 281200Z 14006MPS 4100 -SHRA BKN010CB 11/10 Q1002 R11/2/0050 NOSIG RMK QFE741/0989

IFR

11°C / 9°C

[Περισσότερο]
Άνεμος 140º 10kt
Ορατότητα 5000m
Καιρός Light Showers Rain 3.00mm precipitation
Νέφη Vertical Visibility of 0ft.
Πίεση 1002
Αλλαγή No Significant change. Runway 11: Wet or puddles, with <1mm, friction coefficient 0.50.
Ανεπεξέργαστο UWKD 281130Z 14005MPS 5000 -SHRA BKN006CB 11/09 Q1002 R11/2/0050 NOSIG RMK QFE742/0989

TAF για 55.61°Β 49.28°Α (UWKD)

From till


Maximum Temperature 19ºC on . Minimum Temperature 9ºC on .
From till Wind 210º 10kt. Gust 23kt. Visibility 10km or more. Broken Clouds 1600ft.
Temporarly from till Visibility 6000m. Light Showers Rain . Scattered Clouds 700ft. Broken Clouds 2000ft.
Becoming from till Wind 230º 14kt. Gust 27kt. Visibility 10km or more. Broken Clouds 1600ft.

Ανεπεξέργαστο: TAF UWKD 282000Z 2821/2921 21005G12MPS 9999 BKN016 TX19/2912Z TN09/2901Z TEMPO 2821/2824 6000 -SHRA SCT007 BKN020CB BECMG 2906/2908 23007G14MPS

Ραντάρ και πρόγνωση υετού μικρής διάρκειας για 55.61°Β 49.28°Α

Ψιλοβρέχει
Φως
Μέτρια
Βαριά
Πολύ βαρύ
Χαλάζι

Ο δείκτης θέσης τοποθετείται στο 55.61°Β 49.28°Α. Αυτή η κινούμενη εικόνα δείχνει την ραντάρ βροχόπτωσης για την τελευταία ώρα, καθώς και 1πρόγνωση h. Το ψιλόβροχο ή το ελαφρύ χιόνι μπορεί να είναι αόρατο για το ραντάρ. Η ένταση της βροχόπτωσης είναι χρωματικά κωδικοποιημένη και κυμαίνεται από γαλάζιο έως πορτοκαλί.

Τρέχουσες εικόνες δορυφόρου και βροχής για 55.61°Β 49.28°Α

Η ένδειξη τοποθεσίας τοποθετείται στο 55.61°Β 49.28°Α. [Περισσότερο]

Οι δορυφορικές εικόνες σε πραγματικό χρόνο συνδυάζουν ορατό φως κατά τη διάρκεια της ημέρας με υπέρυθρη ακτινοβολία κατά τη διάρκεια της νύχτας. Κατά τη διάρκεια της νύχτας, η εικόνα δεν είναι σκοτεινή μιας και η υπέρυθρη ακτινοβολία μπορεί να εντοπίσει τις διαφορές στη θερμοκρασία. Δυστυχώς, είναι δύσκολο να ξεχωρίσουν οι χαμηλές νεφώσεις και η ομίχλη από τις θερμοκρασίες εδάφους και έτσι μπορεί να είναι σχετικά αόρατα κατά τη διάρκεια της νύχτας. Οι εικόνες από τον δορυφόρο Meteosat για την Ευρώπη ενημερώνονται σε πραγματικό χρόνο κάθε 5 λεπτά. Οι εικόνες από τους δορυφόρους GOES-16/GOES-17 (Βόρεια & Λατινική Αμερική) και Himawari (Ασία) ενημερώνονται κάθε 10 λεπτά.

Πνευματική ιδιοκτησία 2022 EUMETSAT / meteoblue. / Πνευματική ιδιοκτησία 2022 meteoblue

Επιστροφή στην κορυφή